This is the latest recevied weather packets stored in our database for station/object KG4ZVW. If no packets are shown the sender has not sent any weather packets the latest 10 day(s).
| Time | Temp. | Humidity | Pressure | Rain* | Wind** | Luminosity | Snow |
|---|---|---|---|---|---|---|---|
| 1777733595 | 28.33° C | 67% | 1010.9 hPa | 0 mm | - | 315 W/m² | - |
| 1777733309 | 28.33° C | 68% | 1010.9 hPa | 0 mm | - | 573 W/m² | - |
| 1777733005 | 27.78° C | 68% | 1010.9 hPa | 0 mm | - | 809 W/m² | - |
| 1777732700 | 27.78° C | 67% | 1010.9 hPa | 0 mm | - | 475 W/m² | - |
| 1777732395 | 27.78° C | 66% | 1010.9 hPa | 0 mm | - | 350 W/m² | - |
| 1777732131 | 27.22° C | 65% | 1010.9 hPa | 0 mm | - | 362 W/m² | - |
| 1777731806 | 27.22° C | 67% | 1010.9 hPa | 0 mm | - | 371 W/m² | - |
| 1777731523 | 27.22° C | 67% | 1010.9 hPa | 0 mm | - | 313 W/m² | - |
| 1777731198 | 26.67° C | 67% | 1010.9 hPa | 0 mm | - | 387 W/m² | - |
| 1777730932 | 26.67° C | 71% | 1010.8 hPa | 0 mm | - | 410 W/m² | - |
| 1777730606 | 26.11° C | 70% | 1010.8 hPa | 0 mm | - | 281 W/m² | - |
| 1777730302 | 26.11° C | 73% | 1010.8 hPa | 0 mm | - | 350 W/m² | - |
| 1777730000 | 26.11° C | 74% | 1010.4 hPa | 0 mm | - | 325 W/m² | - |
| 1777729694 | 25.56° C | 75% | 1010.4 hPa | 0 mm | - | 276 W/m² | - |
| 1777729411 | 25.56° C | 76% | 1010.4 hPa | 0 mm | - | 327 W/m² | - |
| 1777729108 | 25.56° C | 77% | 1010.4 hPa | 0 mm | - | 302 W/m² | - |
| 1777728805 | 25° C | 77% | 1010.4 hPa | 0 mm | - | 276 W/m² | - |
| 1777728502 | 25° C | 77% | 1010.4 hPa | 0 mm | - | 232 W/m² | - |
| 1777728198 | 25° C | 80% | 1010.3 hPa | 0 mm | - | 427 W/m² | - |
| 1777727898 | 25° C | 81% | 1010.3 hPa | 0 mm | - | 322 W/m² | - |
| 1777727596 | 24.44° C | 82% | 1010.3 hPa | 0 mm | - | 364 W/m² | - |
| 1777727310 | 24.44° C | 81% | 1010.4 hPa | 0 mm | - | 267 W/m² | - |
| 1777727003 | 24.44° C | 82% | 1010.4 hPa | 0 mm | - | 237 W/m² | - |
| 1777726698 | 24.44° C | 83% | 1010.4 hPa | 0 mm | - | 494 W/m² | - |
| 1777726413 | 24.44° C | 82% | 1010.2 hPa | 0 mm | - | 327 W/m² | - |
* Rain latest hour (hover to see other rain measurements)
** Current wind speed in m/s (hover to see current wind gust speed)